Skip Page Navigation
NASA JPL Caltech
NASA Logo - Jet Propulsion Laboratory + View the NASA Portal
+ Center for Near-Earth Object Studies
JPL Home Earth Solar System Stars & Galaxies Technology
JPL Solar System Dynamics
BODIES ORBITS EPHEMERIDES TOOLS PHYSICAL DATA DISCOVERY FAQ SITE MAP
JPL Small-Body Database Browser
Search: [ help ]  
452579 (2005 EB276)
Classification: Main-belt Asteroid          SPK-ID: 2452579
Ephemeris | Orbit Diagram | Orbital Elements | Mission Design | Physical Parameters | Discovery Circumstances ]

[ show orbit diagram ]
Orbital Elements at Epoch 2459000.5 (2020-May-31.0) TDB
Reference: JPL 12 (heliocentric ecliptic J2000)
 Element Value Uncertainty (1-sigma)   Units 
e .1525897111684382 6.7502e-08  
a 2.389714105011816 1.9816e-08 au
q 2.02506831995292 1.5232e-07 au
i 9.317031138222887 5.764e-06 deg
node 217.2853797685427 3.5271e-05 deg
peri 334.3919641264739 4.3342e-05 deg
M 28.80976541465078 2.0209e-05 deg
tp 2458892.517203978529
(2020-Feb-13.01720398)
7.5942e-05 TDB
period 1349.327424511447
3.69
1.6783e-05
4.595e-08
d
yr
n .2667995873057615 3.3185e-09 deg/d
Q 2.754359890070712 2.284e-08 au
  Orbit Determination Parameters
   # obs. used (total)      153  
   data-arc span      6004 days (16.44 yr)  
   first obs. used      2003-11-20  
   last obs. used      2020-04-28  
   planetary ephem.      DE431  
   SB-pert. ephem.      SB431-N16  
   condition code      0  
   norm. resid. RMS      .58504  
   source      ORB  
   producer      Otto Matic  
   solution date      2020-May-22 04:00:02  

Additional Information
 Earth MOID = 1.02796 au 
 Jupiter MOID = 2.22217 au 
 T_jup = 3.499 
[ show covariance matrix ]

Ephemeris | Orbit Diagram | Orbital Elements | Mission Design | Physical Parameters | Discovery Circumstances ]

Physical Parameter Table
Parameter Symbol Value Units Sigma Reference Notes
absolute magnitude H 17.5   n/a MPO423585  

452579 (2005 EB276)          Discovered 2005-Mar-08 by CSS at Catalina
Reference: Last Updated: 2016-01-04

Alternate Designations
 2005 EB276 = 2003 WR178 
Ephemeris | Orbit Diagram | Orbital Elements | Mission Design | Physical Parameters | Discovery Circumstances ]
ABOUT SSD CREDITS/AWARDS PRIVACY/COPYRIGHT GLOSSARY LINKS
FirstGov 2020-Aug-12 07:45 UT
(server date/time)  
NASA Home Page
Site Manager:   Ryan S. Park
Webmaster  Alan B. Chamberlin